STARLINK-2289 (47983 NORAD) Tracking and Keplerian Element Data

This shows tracking and keplerian element data for the satellite.

Feedback or suggestion? Click here.




ElementValue
Catalog47983
NameSTARLINK-2289
Epoch Orbit198
Epoch Day173.91668981
Epoch Year2021
RAAN114.3232
Inclination53.046
Eccentricity0.0002175
Argument of Perigee24.901
Mean Anonmoly114.272
Mean Motion15.73206712
Decay Rate0.0001012
L11 47983U 21024G 21173.91668981 .00010120 00000-0 76409-4 0 9996
L22 47983 53.0460 114.3232 0002175 24.9010 114.2720 15.73206712 1987

Live tracking and technical data element details for STARLINK-2289 (NORAD 47983). STARLINK-2289 can be tracked NOW for your location showing map with azimuth and elevation plus other details from your city location.

Track the satellite on the map from your city or location and see movement details for azimuth, elevation, latitude, longitude, range, height, and movement on the map or in text.







IsCatalogInMostPopularTable: catalog: 47983, numindb: 42
Update: records affected: 1



GetName: 47983 STARLINK-2289

Hit Count: updated at: Thu, 24 Jun 2021 03:45:26 GMT